Time,TemperatureF,DewpointF,PressureIn,WindDirection,WindDirectionDegrees,WindSpeedMPH,WindSpeedGustMPH,Humidity,HourlyPrecipIn,Conditions,Clouds,dailyrainin,SolarRadiationWatts/m^2,SoftwareType,DateUTC
2013-06-21 06:52:00,0.0,0.0,29.88,SSE,158,3.8,3.8,0,0.00,,---,0.00,0.00,VWS V14.01,2013-06-21 11:52:00,
2013-06-21 06:53:00,75.9,60.6,29.88,SSE,158,7.2,7.2,59,0.00,,---,0.00,0.00,VWS V14.01,2013-06-21 11:53:00,
2013-06-21 06:54:00,75.9,60.6,29.88,SSE,158,3.8,7.6,59,0.00,,---,0.00,0.00,VWS V14.01,2013-06-21 11:54:00,
2013-06-21 06:55:00,75.9,60.6,29.88,South,180,4.9,10.3,59,0.00,,---,0.00,0.00,VWS V14.01,2013-06-21 11:55:00,
2013-06-21 07:00:00,76.1,60.8,29.88,SSW,202,6.0,6.0,59,0.00,,---,0.00,0.00,VWS V14.01,2013-06-21 12:00:00,
2013-06-21 07:06:00,76.3,60.4,29.88,SSE,158,6.3,6.3,58,0.00,,---,0.00,0.00,VWS V14.01,2013-06-21 12:06:00,
2013-06-21 07:15:00,0.0,0.0,29.88,SSE,158,5.8,5.8,0,0.00,,---,0.00,0.00,VWS V14.01,2013-06-21 12:15:00,
2013-06-21 07:20:00,76.6,60.3,29.88,South,180,5.8,6.0,57,0.00,,---,0.00,0.00,VWS V14.01,2013-06-21 12:20:00,
2013-06-21 07:26:00,77.0,60.6,29.91,SSW,202,6.5,8.5,57,0.00,,---,0.00,0.00,VWS V14.01,2013-06-21 12:26:00,
2013-06-21 07:31:00,77.0,60.6,29.91,South,180,6.3,6.3,57,0.00,,---,0.00,0.00,VWS V14.01,2013-06-21 12:31:00,
2013-06-21 07:36:00,77.2,60.3,29.88,SSW,202,7.8,8.5,56,0.00,,---,0.00,0.00,VWS V14.01,2013-06-21 12:36:00,
2013-06-21 07:41:00,77.4,60.0,29.88,SSW,202,5.4,5.4,55,0.00,,---,0.00,0.00,VWS V14.01,2013-06-21 12:41:00,
2013-06-21 07:47:00,77.4,60.0,29.88,South,180,6.5,6.5,55,0.00,,---,0.00,0.00,VWS V14.01,2013-06-21 12:47:00,
2013-06-21 07:53:00,77.4,60.0,29.88,SSE,158,5.8,6.7,55,0.00,,---,0.00,0.00,VWS V14.01,2013-06-21 12:53:00,
2013-06-21 07:59:00,77.4,59.4,29.88,South,180,5.8,6.0,54,0.00,,---,0.00,0.00,VWS V14.01,2013-06-21 12:59:00,
2013-06-21 08:04:00,77.4,59.4,29.88,SSE,158,5.8,5.8,54,0.00,,---,0.00,0.00,VWS V14.01,2013-06-21 13:04:00,
2013-06-21 08:10:00,77.4,59.4,29.88,SSE,158,5.8,6.0,54,0.00,,---,0.00,0.00,VWS V14.01,2013-06-21 13:10:00,
2013-06-21 08:16:00,77.5,59.6,29.88,SSE,158,7.4,7.4,54,0.00,,---,0.00,0.00,VWS V14.01,2013-06-21 13:16:00,
2013-06-21 08:21:00,77.5,59.6,29.88,ESE,112,5.6,5.6,54,0.00,,---,0.00,0.00,VWS V14.01,2013-06-21 13:21:00,
2013-06-21 08:30:00,0.0,0.0,29.88,SSE,158,5.4,7.2,0,0.00,,---,0.00,0.00,VWS V14.01,2013-06-21 13:30:00,
2013-06-21 08:35:00,78.4,60.4,29.88,South,180,4.0,4.7,54,0.00,,---,0.00,0.00,VWS V14.01,2013-06-21 13:35:00,
2013-06-21 08:41:00,78.4,60.4,29.88,SSE,158,4.9,4.9,54,0.00,,---,0.00,0.00,VWS V14.01,2013-06-21 13:41:00,
2013-06-21 08:46:00,79.3,60.2,29.88,SSE,158,5.8,5.8,52,0.00,,---,0.00,0.00,VWS V14.01,2013-06-21 13:46:00,
2013-06-21 08:51:00,79.2,59.5,29.88,SSW,202,4.3,5.8,51,0.00,,---,0.00,0.00,VWS V14.01,2013-06-21 13:51:00,
2013-06-21 08:57:00,79.2,59.5,29.91,South,180,7.6,7.6,51,0.00,,---,0.00,0.00,VWS V14.01,2013-06-21 13:57:00,
2013-06-21 09:02:00,79.9,60.2,29.91,SSE,158,6.3,6.5,51,0.00,,---,0.00,0.00,VWS V14.01,2013-06-21 14:02:00,
2013-06-21 09:09:00,79.9,60.2,29.91,SSE,158,4.9,5.4,51,0.00,,---,0.00,0.00,VWS V14.01,2013-06-21 14:09:00,
2013-06-21 09:14:00,79.9,58.5,29.91,SSW,202,10.5,10.5,48,0.00,,---,0.00,0.00,VWS V14.01,2013-06-21 14:14:00,
2013-06-21 09:20:00,79.9,58.5,29.88,South,180,14.8,14.8,48,0.00,,---,0.00,0.00,VWS V14.01,2013-06-21 14:20:00,
2013-06-21 09:26:00,80.8,58.7,29.88,SSE,158,8.1,9.8,47,0.00,,---,0.00,0.00,VWS V14.01,2013-06-21 14:26:00,
2013-06-21 09:32:00,0.0,0.0,29.88,South,180,11.0,11.0,0,0.00,,---,0.00,0.00,VWS V14.01,2013-06-21 14:32:00,
2013-06-21 09:37:00,81.7,57.7,29.88,SSW,202,10.3,12.5,44,0.00,,---,0.00,0.00,VWS V14.01,2013-06-21 14:37:00,
2013-06-21 09:42:00,81.7,57.7,29.88,South,180,11.2,11.2,44,0.00,,---,0.00,0.00,VWS V14.01,2013-06-21 14:42:00,
2013-06-21 09:47:00,81.9,57.2,29.88,SSW,202,9.6,9.6,43,0.00,,---,0.00,0.00,VWS V14.01,2013-06-21 14:47:00,
2013-06-21 09:53:00,81.9,57.2,29.88,SE,135,7.2,8.1,43,0.00,,---,0.00,0.00,VWS V14.01,2013-06-21 14:53:00,
2013-06-21 10:00:00,83.1,58.3,29.88,SSE,158,7.8,7.8,43,0.00,,---,0.00,0.00,VWS V14.01,2013-06-21 15:00:00,
2013-06-21 10:06:00,83.1,58.3,29.88,South,180,6.9,7.8,43,0.00,,---,0.00,0.00,VWS V14.01,2013-06-21 15:06:00,
2013-06-21 10:12:00,82.2,56.2,29.88,SSW,202,12.5,12.5,41,0.00,,---,0.00,0.00,VWS V14.01,2013-06-21 15:12:00,
2013-06-21 10:18:00,82.0,56.7,29.88,WSW,248,11.0,11.0,42,0.00,,---,0.00,0.00,VWS V14.01,2013-06-21 15:18:00,
2013-06-21 10:24:00,82.0,55.4,29.88,West,270,5.4,10.3,40,0.00,,---,0.00,0.00,VWS V14.01,2013-06-21 15:24:00,
2013-06-21 10:29:00,81.9,55.2,29.88,SSW,202,6.5,12.5,40,0.00,,---,0.00,0.00,VWS V14.01,2013-06-21 15:29:00,
2013-06-21 10:35:00,82.2,56.2,29.88,South,180,10.3,10.3,41,0.00,,---,0.00,0.00,VWS V14.01,2013-06-21 15:35:00,
2013-06-21 10:40:00,82.6,56.5,29.88,WSW,248,7.6,7.6,41,0.00,,---,0.00,0.00,VWS V14.01,2013-06-21 15:40:00,
2013-06-21 10:46:00,82.9,55.5,29.88,SSW,202,8.5,12.5,39,0.00,,---,0.00,0.00,VWS V14.01,2013-06-21 15:46:00,
2013-06-21 10:52:00,84.7,56.3,29.88,South,180,8.7,8.7,38,0.00,,---,0.00,0.00,VWS V14.01,2013-06-21 15:52:00,
2013-06-21 10:57:00,84.9,53.5,29.88,SW,225,15.4,15.4,34,0.00,,---,0.00,0.00,VWS V14.01,2013-06-21 15:57:00,
2013-06-21 11:03:00,84.9,52.6,29.88,SSW,202,11.4,11.4,33,0.00,,---,0.00,0.00,VWS V14.01,2013-06-21 16:03:00,
2013-06-21 11:08:00,84.4,52.2,29.91,South,180,7.2,7.2,33,0.00,,---,0.00,0.00,VWS V14.01,2013-06-21 16:08:00,
2013-06-21 11:13:00,84.0,52.7,29.91,South,180,10.7,10.7,34,0.00,,---,0.00,0.00,VWS V14.01,2013-06-21 16:13:00,
2013-06-21 11:19:00,83.8,52.5,29.91,SW,225,15.2,15.2,34,0.00,,---,0.00,0.00,VWS V14.01,2013-06-21 16:19:00,
2013-06-21 11:25:00,83.8,52.5,29.91,SSW,202,8.7,8.7,34,0.00,,---,0.00,0.00,VWS V14.01,2013-06-21 16:25:00,
2013-06-21 11:31:00,83.3,52.0,29.91,SW,225,9.8,9.8,34,0.00,,---,0.00,0.00,VWS V14.01,2013-06-21 16:31:00,
2013-06-21 11:37:00,83.3,52.0,29.91,SSW,202,8.1,13.2,34,0.00,,---,0.00,0.00,VWS V14.01,2013-06-21 16:37:00,
2013-06-21 11:43:00,82.9,53.3,29.91,South,180,7.2,7.6,36,0.00,,---,0.00,0.00,VWS V14.01,2013-06-21 16:43:00,
2013-06-21 11:49:00,82.9,53.3,0.00,South,180,7.6,8.5,36,0.00,,---,0.00,0.00,VWS V14.01,2013-06-21 16:49:00,
2013-06-21 11:54:00,83.3,55.1,29.88,South,180,7.6,7.6,38,0.00,,---,0.00,0.00,VWS V14.01,2013-06-21 16:54:00,
2013-06-21 11:59:00,83.8,56.3,29.88,SSW,202,4.9,7.6,39,0.00,,---,0.00,0.00,VWS V14.01,2013-06-21 16:59:00,
2013-06-21 12:05:00,84.4,56.7,29.88,ESE,112,6.0,6.0,39,0.00,,---,0.00,0.00,VWS V14.01,2013-06-21 17:05:00,
2013-06-21 12:10:00,85.8,58.0,29.88,South,180,10.3,12.3,39,0.00,,---,0.00,0.00,VWS V14.01,2013-06-21 17:10:00,
2013-06-21 12:16:00,85.8,58.0,29.88,South,180,12.5,12.5,39,0.00,,---,0.00,0.00,VWS V14.01,2013-06-21 17:16:00,
2013-06-21 12:21:00,86.7,53.4,29.88,SSW,202,8.7,8.7,32,0.00,,---,0.00,0.00,VWS V14.01,2013-06-21 17:21:00,
2013-06-21 12:27:00,86.7,53.4,29.88,SW,225,8.7,8.7,32,0.00,,---,0.00,0.00,VWS V14.01,2013-06-21 17:27:00,
2013-06-21 12:33:00,86.4,52.2,29.88,South,180,13.6,13.6,31,0.00,,---,0.00,0.00,VWS V14.01,2013-06-21 17:33:00,
2013-06-21 12:38:00,86.5,52.3,29.88,SSW,202,5.8,13.6,31,0.00,,---,6.31,0.00,VWS V14.01,2013-06-21 17:38:00,
2013-06-21 12:43:00,86.5,52.3,29.88,SW,225,19.9,19.9,31,0.00,,---,6.31,0.00,VWS V14.01,2013-06-21 17:43:00,
2013-06-21 12:46:00,86.5,52.3,29.88,South,180,9.8,19.9,31,0.00,,---,6.31,0.00,VWS V14.01,2013-06-21 17:46:00,
2013-06-21 12:47:00,86.5,52.3,29.88,WSW,248,3.6,19.9,31,0.00,,---,6.31,0.00,VWS V14.01,2013-06-21 17:47:00,
2013-06-21 12:48:00,87.1,52.8,29.88,WNW,292,6.3,7.2,31,0.00,,---,6.31,0.00,VWS V14.01,2013-06-21 17:48:00,
2013-06-21 12:51:00,87.1,53.7,29.91,SSW,202,10.3,10.3,32,0.00,,---,6.31,0.00,VWS V14.01,2013-06-21 17:51:00,
2013-06-21 12:57:00,87.3,53.0,29.91,South,180,12.8,12.8,31,0.00,,---,6.31,0.00,VWS V14.01,2013-06-21 17:57:00,
2013-06-21 13:03:00,87.8,53.4,29.91,SW,225,6.3,10.1,31,0.00,,---,6.31,0.00,VWS V14.01,2013-06-21 18:03:00,
2013-06-21 13:04:00,87.8,53.4,29.91,SSW,202,10.5,10.5,31,0.00,,---,6.31,0.00,VWS V14.01,2013-06-21 18:04:00,
2013-06-21 13:09:00,87.4,52.2,29.88,SSW,202,8.1,8.1,30,0.00,,---,6.31,0.00,VWS V14.01,2013-06-21 18:09:00,
2013-06-21 13:15:00,87.6,52.4,29.88,SSE,158,7.8,8.1,30,0.00,,---,6.31,0.00,VWS V14.01,2013-06-21 18:15:00,
2013-06-21 13:21:00,87.4,51.3,29.88,South,180,4.0,10.3,29,0.00,,---,6.31,0.00,VWS V14.01,2013-06-21 18:21:00,
2013-06-21 13:24:00,86.7,51.6,29.88,SSW,202,7.6,7.6,30,0.00,,---,6.31,0.00,VWS V14.01,2013-06-21 18:24:00,
2013-06-21 13:25:00,86.7,51.6,29.88,SSW,202,7.6,7.6,30,0.00,,---,6.31,0.00,VWS V14.01,2013-06-21 18:25:00,
2013-06-21 13:26:00,86.5,51.5,29.88,SW,225,11.9,11.9,30,0.00,,---,6.31,0.00,VWS V14.01,2013-06-21 18:26:00,
2013-06-21 13:28:00,86.5,52.3,29.88,SW,225,10.5,13.0,31,0.00,,---,6.31,0.00,VWS V14.01,2013-06-21 18:28:00,
2013-06-21 13:33:00,86.5,52.3,29.88,SSW,202,6.3,8.5,31,0.00,,---,6.31,0.00,VWS V14.01,2013-06-21 18:33:00,
2013-06-21 13:38:00,87.1,52.8,29.88,SSW,202,6.3,6.3,31,0.00,,---,6.31,0.00,VWS V14.01,2013-06-21 18:38:00,
2013-06-21 13:44:00,87.4,54.0,29.88,SSW,202,6.7,6.7,32,0.00,,---,6.31,0.00,VWS V14.01,2013-06-21 18:44:00,
2013-06-21 13:46:00,87.4,54.0,29.88,SSW,202,6.7,6.7,32,0.00,,---,6.31,0.00,VWS V14.01,2013-06-21 18:46:00,
2013-06-21 13:49:00,87.8,52.5,29.88,SW,225,6.5,8.7,30,0.00,,---,6.31,0.00,VWS V14.01,2013-06-21 18:49:00,
2013-06-21 13:52:00,87.6,51.5,29.88,SSW,202,13.0,13.0,29,0.00,,---,6.31,0.00,VWS V14.01,2013-06-21 18:52:00,
2013-06-21 13:55:00,87.4,51.3,29.88,SW,225,5.8,5.8,29,0.00,,---,6.31,0.00,VWS V14.01,2013-06-21 18:55:00,
2013-06-21 14:00:00,87.3,51.2,29.88,SSW,202,7.4,7.4,29,0.00,,---,6.31,0.00,VWS V14.01,2013-06-21 19:00:00,
2013-06-21 14:05:00,86.9,50.8,29.88,West,270,5.8,5.8,29,0.00,,---,6.31,0.00,VWS V14.01,2013-06-21 19:05:00,
2013-06-21 14:12:00,86.4,51.3,29.88,SW,225,6.0,6.0,30,0.00,,---,6.31,0.00,VWS V14.01,2013-06-21 19:12:00,
2013-06-21 14:17:00,85.8,51.7,29.88,South,180,3.1,4.0,31,0.00,,---,6.31,0.00,VWS V14.01,2013-06-21 19:17:00,
2013-06-21 14:20:00,85.6,51.6,29.88,WSW,248,2.9,5.4,31,0.00,,---,6.31,0.00,VWS V14.01,2013-06-21 19:20:00,
2013-06-21 14:25:00,85.5,51.4,29.88,SSW,202,3.1,3.1,31,0.00,,---,6.31,0.00,VWS V14.01,2013-06-21 19:25:00,
2013-06-21 14:31:00,85.3,52.1,29.88,South,180,5.6,10.1,32,0.00,,---,6.31,0.00,VWS V14.01,2013-06-21 19:31:00,
2013-06-21 14:37:00,85.3,52.1,29.88,South,180,7.4,7.4,32,0.00,,---,6.31,0.00,VWS V14.01,2013-06-21 19:37:00,
2013-06-21 14:42:00,85.1,52.0,29.88,SW,225,10.3,10.3,32,0.00,,---,6.31,0.00,VWS V14.01,2013-06-21 19:42:00,
2013-06-21 14:43:00,85.3,53.0,29.88,SE,135,6.3,10.3,33,0.00,,---,6.31,0.00,VWS V14.01,2013-06-21 19:43:00,
2013-06-21 14:48:00,85.3,53.0,29.88,SE,135,6.3,6.3,33,0.00,,---,6.31,0.00,VWS V14.01,2013-06-21 19:48:00,
2013-06-21 14:54:00,85.6,54.1,29.85,SSE,158,6.0,7.4,34,0.00,,---,6.31,0.00,VWS V14.01,2013-06-21 19:54:00,
2013-06-21 14:59:00,86.0,54.4,29.85,SSE,158,9.8,9.8,34,0.00,,---,6.31,0.00,VWS V14.01,2013-06-21 19:59:00,
2013-06-21 15:05:00,86.7,53.4,29.85,South,180,17.5,17.5,32,0.00,,---,6.31,0.00,VWS V14.01,2013-06-21 20:05:00,
2013-06-21 15:11:00,88.2,54.6,29.85,South,180,14.5,14.5,32,0.00,,---,6.31,0.00,VWS V14.01,2013-06-21 20:11:00,
2013-06-21 15:14:00,89.1,55.4,29.85,SSE,158,9.8,10.5,32,0.00,,---,6.31,0.00,VWS V14.01,2013-06-21 20:14:00,
2013-06-21 15:20:00,89.2,54.7,29.85,SE,135,5.8,8.1,31,0.00,,---,6.31,0.00,VWS V14.01,2013-06-21 20:20:00,
2013-06-21 15:25:00,89.1,53.6,29.85,SSW,202,10.7,10.7,30,0.00,,---,6.31,0.00,VWS V14.01,2013-06-21 20:25:00,
2013-06-21 15:30:00,88.7,53.3,29.85,SSW,202,5.6,12.5,30,0.00,,---,6.31,0.00,VWS V14.01,2013-06-21 20:30:00,
2013-06-21 15:35:00,88.5,53.2,29.85,South,180,8.5,8.5,30,0.00,,---,6.31,0.00,VWS V14.01,2013-06-21 20:35:00,
2013-06-21 15:41:00,88.9,54.4,29.85,SE,135,5.8,8.7,31,0.00,,---,6.31,0.00,VWS V14.01,2013-06-21 20:41:00,
2013-06-21 15:46:00,88.9,54.4,29.85,SSE,158,6.3,6.3,31,0.00,,---,6.31,0.00,VWS V14.01,2013-06-21 20:46:00,
2013-06-21 15:51:00,90.5,54.9,29.85,SSE,158,6.5,7.6,30,0.00,,---,6.31,0.00,VWS V14.01,2013-06-21 20:51:00,
2013-06-21 15:57:00,91.0,55.3,29.85,SSE,158,7.8,10.3,30,0.00,,---,6.31,0.00,VWS V14.01,2013-06-21 20:57:00,
2013-06-21 16:02:00,91.2,54.5,29.85,SSE,158,5.4,6.9,29,0.00,,---,6.31,0.00,VWS V14.01,2013-06-21 21:02:00,
2013-06-21 16:04:00,91.4,54.7,29.85,SSE,158,2.7,2.7,29,0.00,,---,6.31,0.00,VWS V14.01,2013-06-21 21:04:00,
2013-06-21 16:09:00,91.2,53.6,29.88,SSW,202,5.8,5.8,28,0.00,,---,6.31,0.00,VWS V14.01,2013-06-21 21:09:00,
2013-06-21 16:15:00,91.2,52.6,29.88,South,180,13.2,13.2,27,0.00,,---,6.31,0.00,VWS V14.01,2013-06-21 21:15:00,
2013-06-21 16:21:00,91.0,48.1,29.85,SSW,202,8.5,10.1,23,0.00,,---,6.31,0.00,VWS V14.01,2013-06-21 21:21:00,
2013-06-21 16:26:00,91.2,50.5,29.85,SSW,202,8.1,9.6,25,0.00,,---,6.31,0.00,VWS V14.01,2013-06-21 21:26:00,
2013-06-21 16:31:00,91.2,50.5,29.85,South,180,5.4,8.1,25,0.00,,---,6.31,0.00,VWS V14.01,2013-06-21 21:31:00,
2013-06-21 16:37:00,91.8,49.9,29.85,SSW,202,11.0,11.0,24,0.00,,---,6.31,0.00,VWS V14.01,2013-06-21 21:37:00,
2013-06-21 16:43:00,91.9,47.7,29.85,ESE,112,6.0,7.2,22,0.00,,---,6.31,0.00,VWS V14.01,2013-06-21 21:43:00,
2013-06-21 16:48:00,91.8,45.0,29.85,SW,225,7.8,8.7,20,0.00,,---,6.31,0.00,VWS V14.01,2013-06-21 21:48:00,
2013-06-21 16:54:00,91.6,43.5,29.82,SSW,202,12.3,15.2,19,0.00,,---,6.31,0.00,VWS V14.01,2013-06-21 21:54:00,
2013-06-21 17:00:00,91.4,43.4,29.82,SW,225,10.1,10.1,19,0.00,,---,6.31,0.00,VWS V14.01,2013-06-21 22:00:00,
2013-06-21 17:06:00,91.2,44.6,29.82,South,180,9.8,12.1,20,0.00,,---,6.31,0.00,VWS V14.01,2013-06-21 22:06:00,
2013-06-21 17:11:00,91.4,43.4,29.82,WSW,248,10.3,10.3,19,0.00,,---,6.31,0.00,VWS V14.01,2013-06-21 22:11:00,
2013-06-21 17:16:00,91.4,43.4,29.82,SSW,202,13.2,13.2,19,0.00,,---,6.31,0.00,VWS V14.01,2013-06-21 22:16:00,
2013-06-21 17:22:00,91.2,43.2,29.85,SSW,202,15.2,15.2,19,0.00,,---,6.31,0.00,VWS V14.01,2013-06-21 22:22:00,
2013-06-21 17:28:00,91.2,44.6,29.85,South,180,12.1,12.5,20,0.00,,---,6.31,0.00,VWS V14.01,2013-06-21 22:28:00,
2013-06-21 17:34:00,91.2,44.6,29.85,SW,225,12.1,13.2,20,0.00,,---,6.31,0.00,VWS V14.01,2013-06-21 22:34:00,
2013-06-21 17:40:00,91.2,44.6,29.85,WSW,248,8.5,8.5,20,0.00,,---,6.31,0.00,VWS V14.01,2013-06-21 22:40:00,
2013-06-21 17:45:00,91.2,45.9,29.85,South,180,7.4,7.4,21,0.00,,---,6.31,0.00,VWS V14.01,2013-06-21 22:45:00,
2013-06-21 17:51:00,91.4,44.7,29.85,SE,135,9.6,11.0,20,0.00,,---,6.31,0.00,VWS V14.01,2013-06-21 22:51:00,
2013-06-21 17:57:00,91.4,43.4,29.85,SSW,202,7.6,7.6,19,0.00,,---,6.31,0.00,VWS V14.01,2013-06-21 22:57:00,
2013-06-21 18:02:00,91.4,43.4,29.85,SSE,158,10.3,10.3,19,0.00,,---,6.31,0.00,VWS V14.01,2013-06-21 23:02:00,
2013-06-21 18:08:00,90.0,43.5,29.85,South,180,12.5,12.5,20,0.00,,---,6.31,0.00,VWS V14.01,2013-06-21 23:08:00,
2013-06-21 18:13:00,90.0,43.5,29.85,SSW,202,6.5,8.5,20,0.00,,---,6.31,0.00,VWS V14.01,2013-06-21 23:13:00,
2013-06-21 18:18:00,90.0,43.5,29.85,SSW,202,5.4,6.5,20,0.00,,---,6.31,0.00,VWS V14.01,2013-06-21 23:18:00,
2013-06-21 18:23:00,89.1,42.8,29.85,SSW,202,6.0,11.0,20,0.00,,---,6.31,0.00,VWS V14.01,2013-06-21 23:23:00,
2013-06-21 18:29:00,89.2,43.0,29.85,SSW,202,5.8,5.8,20,0.00,,---,6.31,0.00,VWS V14.01,2013-06-21 23:29:00,
2013-06-21 18:35:00,89.4,41.8,29.82,SSW,202,6.0,7.8,19,0.00,,---,6.31,0.00,VWS V14.01,2013-06-21 23:35:00,
2013-06-21 18:40:00,89.2,41.6,29.82,SSW,202,7.8,10.5,19,0.00,,---,6.31,0.00,VWS V14.01,2013-06-21 23:40:00,
2013-06-21 18:46:00,89.2,41.6,29.82,South,180,10.7,10.7,19,0.00,,---,6.31,0.00,VWS V14.01,2013-06-21 23:46:00,
2013-06-21 18:52:00,89.1,41.5,29.85,SSE,158,6.5,8.1,19,0.00,,---,6.31,0.00,VWS V14.01,2013-06-21 23:52:00,
2013-06-21 18:57:00,88.9,41.3,29.85,SSW,202,10.3,10.3,19,0.00,,---,6.31,0.00,VWS V14.01,2013-06-21 23:57:00,
2013-06-21 19:02:00,88.7,42.5,29.85,SSW,202,7.2,7.8,20,0.00,,---,6.31,0.00,VWS V14.01,2013-06-22 00:02:00,
2013-06-21 19:08:00,88.5,42.4,29.82,SE,135,5.6,5.6,20,0.00,,---,6.31,0.00,VWS V14.01,2013-06-22 00:08:00,
2013-06-21 19:14:00,88.5,43.6,29.82,SSE,158,7.2,7.2,21,0.00,,---,6.31,0.00,VWS V14.01,2013-06-22 00:14:00,
2013-06-21 19:19:00,88.3,43.5,29.82,South,180,3.6,5.6,21,0.00,,---,6.31,0.00,VWS V14.01,2013-06-22 00:19:00,
2013-06-21 19:24:00,88.2,44.6,29.85,SSE,158,6.3,6.3,22,0.00,,---,6.31,0.00,VWS V14.01,2013-06-22 00:24:00,
2013-06-21 19:30:00,87.8,45.4,29.85,SSE,158,7.2,7.2,23,0.00,,---,6.31,0.00,VWS V14.01,2013-06-22 00:30:00,
2013-06-21 19:36:00,87.6,45.3,29.85,SSE,158,6.5,9.8,23,0.00,,---,6.31,0.00,VWS V14.01,2013-06-22 00:36:00,
2013-06-21 19:41:00,87.6,45.3,29.85,SSW,202,6.0,8.7,23,0.00,,---,6.31,0.00,VWS V14.01,2013-06-22 00:41:00,
2013-06-21 19:46:00,87.3,46.1,29.85,South,180,3.8,3.8,24,0.00,,---,6.31,0.00,VWS V14.01,2013-06-22 00:46:00,
2013-06-21 19:51:00,87.3,46.1,29.85,South,180,3.1,4.7,24,0.00,,---,6.31,0.00,VWS V14.01,2013-06-22 00:51:00,
2013-06-21 19:57:00,87.3,46.1,29.85,SE,135,5.4,5.4,24,0.00,,---,6.31,0.00,VWS V14.01,2013-06-22 00:57:00,
2013-06-21 20:03:00,87.3,46.1,29.85,South,180,5.6,5.6,24,0.00,,---,6.31,0.00,VWS V14.01,2013-06-22 01:03:00,
2013-06-21 20:09:00,87.3,46.1,29.85,SSE,158,5.6,6.3,24,0.00,,---,6.31,0.00,VWS V14.01,2013-06-22 01:09:00,
2013-06-21 20:15:00,85.5,48.7,29.85,SSW,202,4.0,7.4,28,0.00,,---,6.31,0.00,VWS V14.01,2013-06-22 01:15:00,
2013-06-21 20:21:00,85.1,49.3,29.85,SSW,202,3.8,4.9,29,0.00,,---,6.31,0.00,VWS V14.01,2013-06-22 01:21:00,
2013-06-21 20:26:00,85.1,49.3,29.85,SSW,202,6.3,6.3,29,0.00,,---,6.31,0.00,VWS V14.01,2013-06-22 01:26:00,
2013-06-21 20:32:00,84.4,48.7,29.85,SSW,202,5.6,5.6,29,0.00,,---,6.31,0.00,VWS V14.01,2013-06-22 01:32:00,
2013-06-21 20:37:00,84.0,49.3,29.85,SSW,202,6.5,6.5,30,0.00,,---,6.31,0.00,VWS V14.01,2013-06-22 01:37:00,
2013-06-21 20:42:00,84.0,49.3,29.85,West,270,4.9,5.4,30,0.00,,---,6.31,0.00,VWS V14.01,2013-06-22 01:42:00,
2013-06-21 20:48:00,83.8,49.1,29.85,SSW,202,3.4,5.4,30,0.00,,---,6.31,0.00,VWS V14.01,2013-06-22 01:48:00,
2013-06-21 20:54:00,83.7,49.0,29.82,SSW,202,8.7,8.7,30,0.00,,---,6.31,0.00,VWS V14.01,2013-06-22 01:54:00,
2013-06-21 20:59:00,83.5,48.8,29.82,South,180,7.6,7.6,30,0.00,,---,6.31,0.00,VWS V14.01,2013-06-22 01:59:00,
2013-06-21 21:05:00,83.3,48.7,29.82,SSW,202,3.8,4.0,30,0.00,,---,6.31,0.00,VWS V14.01,2013-06-22 02:05:00,
2013-06-21 21:10:00,83.3,48.7,29.82,SSW,202,3.8,3.8,30,0.00,,---,6.31,0.00,VWS V14.01,2013-06-22 02:10:00,
2013-06-21 21:15:00,82.9,49.2,29.82,South,180,3.1,3.1,31,0.00,,---,6.31,0.00,VWS V14.01,2013-06-22 02:15:00,
2013-06-21 21:21:00,82.8,49.1,29.82,South,180,3.6,6.3,31,0.00,,---,6.31,0.00,VWS V14.01,2013-06-22 02:21:00,
2013-06-21 21:27:00,82.8,49.1,29.82,SSE,158,2.7,3.6,31,0.00,,---,6.31,0.00,VWS V14.01,2013-06-22 02:27:00,
2013-06-21 21:32:00,82.4,48.8,29.82,SSW,202,4.3,4.3,31,0.00,,---,6.31,0.00,VWS V14.01,2013-06-22 02:32:00,
2013-06-21 21:37:00,82.0,49.3,29.85,South,180,6.9,6.9,32,0.00,,---,6.31,0.00,VWS V14.01,2013-06-22 02:37:00,
2013-06-21 21:42:00,82.0,49.3,29.85,South,180,6.9,6.9,32,0.00,,---,6.31,0.00,VWS V14.01,2013-06-22 02:42:00,
2013-06-21 21:48:00,81.9,49.1,29.85,SW,225,6.3,6.3,32,0.00,,---,6.31,0.00,VWS V14.01,2013-06-22 02:48:00,
2013-06-21 21:54:00,81.9,49.1,29.85,SSW,202,5.4,5.4,32,0.00,,---,6.31,0.00,VWS V14.01,2013-06-22 02:54:00,
2013-06-21 22:00:00,81.5,48.8,29.85,South,180,3.1,3.1,32,0.00,,---,6.31,0.00,VWS V14.01,2013-06-22 03:00:00,